Weather History for KHOB - February, 2014

Change the Weather History Date:

Monday, February 17, 2014

  Actual Average Record
Temperature  
Mean Temperature 54 °F -  
Max Temperature 64 °F 60 °F 80 °F (2000)
Min Temperature 42 °F 33 °F 20 °F (1958)
Degree Days  
Heating Degree Days 11    
Growing Degree Days 4 (Base 50)    
Moisture  
Dew Point 17 °F    
Average Humidity 23    
Maximum Humidity 31    
Minimum Humidity 17    
Precipitation  
Precipitation 0.00 in - - ()
Sea Level Pressure  
Sea Level Pressure 30.14 in    
Wind  
Wind Speed 11 mph (ENE)    
Max Wind Speed 22 mph    
Max Gust Speed 31 mph    
Visibility 10 miles    
Events      
Averages and records for this station are not official NWS values.
T = Trace of Precipitation, MM = Missing Value Source: NWS Daily Summary

Daily Weather History Graph

Daily Weather History Graph

Search for Another Location

Airport or City:

Trip Planner

Search our weather history database for the weather conditions in past years. The results will help you decide how hot, cold, wet, or windy it might be!

Date:

Astronomy

Feb. 17, 2014 Rise Set
Actual Time 6:33 AM MST 5:40 PM MST
Civil Twilight 6:08 AM MST 6:05 PM MST
Nautical Twilight 5:39 AM MST 6:34 PM MST
Astronomical Twilight 5:11 AM MST 7:02 PM MST
Moon 8:24 PM MST (2/17) 7:46 AM MST (2/17)
Length of Visible Light 11h 56m
Length of Day
11h 06m
Waning Gibbous, 93% of the Moon is Illuminated
Feb 17
Waning Gibbous
Feb 22
Last Quarter
Mar 1
New
Mar 8
First Quarter
Mar 16
Full

Hourly Weather History & Observations

Time (MST) Temp. Windchill Dew Point Humidity Pressure Visibility Wind Dir Wind Speed Gust Speed Precip Events Conditions
12:15 AM 55.4 °F - 15.8 °F 21% 30.00 in 10.0 mi West 8.1 mph - N/A   Clear
12:35 AM 55.4 °F - 14.0 °F 20% 30.01 in 10.0 mi West 12.7 mph - N/A   Clear
12:55 AM 59.0 °F - 14.0 °F 17% 30.01 in 10.0 mi West 15.0 mph - N/A   Clear
1:15 AM 59.0 °F - 14.0 °F 17% 30.02 in 10.0 mi West 12.7 mph - N/A   Clear
1:35 AM 57.2 °F - 14.0 °F 18% 30.02 in 10.0 mi West 10.4 mph - N/A   Clear
1:55 AM 55.4 °F - 14.0 °F 20% 30.02 in 10.0 mi West 11.5 mph - N/A   Clear
2:15 AM 57.2 °F - 14.0 °F 18% 30.02 in 10.0 mi WNW 13.8 mph - N/A   Clear
2:35 AM 57.2 °F - 14.0 °F 18% 30.03 in 10.0 mi WNW 16.1 mph - N/A   Clear
2:55 AM 55.4 °F - 14.0 °F 20% 30.04 in 10.0 mi WNW 15.0 mph - N/A   Clear
3:15 AM 53.6 °F - 15.8 °F 22% 30.04 in 10.0 mi WNW 13.8 mph - N/A   Clear
3:35 AM 53.6 °F - 15.8 °F 22% 30.05 in 10.0 mi WNW 13.8 mph - N/A   Clear
3:55 AM 53.6 °F - 15.8 °F 22% 30.05 in 10.0 mi WNW 15.0 mph - N/A   Clear
5:50 AM 55.4 °F - 17.6 °F 23% 30.09 in 10.0 mi NW 15.0 mph - N/A   Clear
6:50 AM 55.4 °F - 17.6 °F 23% 30.11 in 10.0 mi NNW 17.3 mph - N/A   Clear
7:50 AM 55.4 °F - 19.4 °F 25% 30.15 in 10.0 mi NNW 15.0 mph - N/A   Clear
8:50 AM 59.0 °F - 19.4 °F 22% 30.22 in 9.0 mi NNE 21.9 mph 31.1 mph N/A   Clear
9:50 AM 60.8 °F - 23.0 °F 23% 30.25 in 10.0 mi NE 17.3 mph 25.3 mph N/A   Clear
10:50 AM 62.6 °F - 24.8 °F 24% 30.25 in 10.0 mi ENE 17.3 mph 24.2 mph N/A   Clear
11:50 AM 64.4 °F - 24.8 °F 22% 30.24 in 10.0 mi ENE 12.7 mph 23.0 mph N/A   Clear
12:50 PM 64.4 °F - 23.0 °F 21% 30.21 in 10.0 mi ENE 15.0 mph 20.7 mph N/A   Clear
1:50 PM 64.4 °F - 23.0 °F 21% 30.18 in 10.0 mi East 10.4 mph 17.3 mph N/A   Clear
2:50 PM 64.4 °F - 23.0 °F 21% 30.18 in 10.0 mi East 16.1 mph 21.9 mph N/A   Clear
3:50 PM 62.6 °F - 19.4 °F 19% 30.17 in 10.0 mi ESE 13.8 mph 18.4 mph N/A   Clear
4:50 PM 60.8 °F - 19.4 °F 20% 30.18 in 10.0 mi East 13.8 mph - N/A   Clear
5:15 PM 59.0 °F - 17.6 °F 20% 30.18 in 10.0 mi East 10.4 mph 18.4 mph N/A   Clear
5:35 PM 57.2 °F - 17.6 °F 21% 30.18 in 10.0 mi East 9.2 mph - N/A   Clear
5:50 PM 55.4 °F - 17.6 °F 23% 30.19 in 10.0 mi East 4.6 mph - N/A   Clear
5:55 PM 55.4 °F - 17.6 °F 23% 30.19 in 10.0 mi East 4.6 mph - N/A   Clear
6:15 PM 53.6 °F - 17.6 °F 24% 30.19 in 10.0 mi East 5.8 mph - N/A   Clear
6:35 PM 51.8 °F - 17.6 °F 26% 30.18 in 10.0 mi East 6.9 mph - N/A   Clear
6:55 PM 51.8 °F - 17.6 °F 26% 30.19 in 10.0 mi East 6.9 mph - N/A   Clear
7:15 PM 51.8 °F - 17.6 °F 26% 30.18 in 10.0 mi East 8.1 mph - N/A   Clear
7:35 PM 53.6 °F - 15.8 °F 22% 30.19 in 10.0 mi East 8.1 mph - N/A   Clear
7:55 PM 51.8 °F - 15.8 °F 24% 30.18 in 10.0 mi ESE 9.2 mph - N/A   Clear
8:15 PM 51.8 °F - 15.8 °F 24% 30.18 in 10.0 mi East 10.4 mph - N/A   Clear
8:35 PM 51.8 °F - 14.0 °F 22% 30.18 in 10.0 mi East 8.1 mph - N/A   Clear
8:55 PM 50.0 °F - 14.0 °F 24% 30.17 in 10.0 mi East 8.1 mph - N/A   Clear
9:15 PM 48.2 °F - 14.0 °F 25% 30.17 in 10.0 mi East 6.9 mph - N/A   Clear
9:35 PM 46.4 °F 45.2 °F 14.0 °F 27% 30.17 in 10.0 mi East 3.5 mph - N/A   Clear
9:55 PM 44.6 °F - 14.0 °F 29% 30.17 in 10.0 mi Calm Calm - N/A   Clear
10:15 PM 44.6 °F 43.1 °F 12.2 °F 27% 30.16 in 10.0 mi East 3.5 mph - N/A   Clear
10:35 PM 44.6 °F 41.4 °F 14.0 °F 29% 30.15 in 10.0 mi SE 5.8 mph - N/A   Clear
10:55 PM 44.6 °F - 12.2 °F 27% 30.15 in 10.0 mi Calm Calm - N/A   Clear
11:15 PM 44.6 °F - 12.2 °F 27% 30.15 in 10.0 mi Calm Calm - N/A   Clear
11:35 PM 44.6 °F 43.1 °F 14.0 °F 29% 30.14 in 10.0 mi SE 3.5 mph - N/A   Clear
11:55 PM 42.8 °F - 14.0 °F 31% 30.13 in 10.0 mi Calm Calm - N/A   Clear